VOYAGER:1:PRINTED,ON:,18-JUL-02:14:11:42:GROUP29
START_TIME,STOP_TIME,SECTOR,SCAN_DIR,P1FLUX,P1UNC,P10FLUX,P10UNC,P11FLUX,P11UNC,M6FLUX,M6UNC,M7FLUX,M7UNC
1979-02-26 00:00:18.270 ,1979-02-26 00:00:41.840 ,4,1,3.55,1.34,0.000E+00,0.000E+00,0.000E+00,0.000E+00,0.000E+00,0.000E+00,0.000E+00,0.000E+00
1979-02-26 00:00:42.270 ,1979-02-26 00:01:05.840 ,5,1,1.52,0.879,0.000E+00,0.000E+00,1.171E-02,1.171E-02,0.000E+00,0.000E+00,0.000E+00,0.000E+00
1979-02-26 00:01:06.270 ,1979-02-26 00:01:29.840 ,6,1,1.52,0.879,0.000E+00,0.000E+00,1.171E-02,1.171E-02,0.000E+00,0.000E+00,0.000E+00,0.000E+00
1979-02-26 00:01:30.270 ,1979-02-26 00:01:53.840 ,7,1,1.52,0.879,0.000E+00,0.000E+00,2.343E-02,1.656E-02,0.000E+00,0.000E+00,0.000E+00,0.000E+00
1979-02-26 00:01:54.270 ,1979-02-26 00:02:35.840 ,8,1,0.000E+00,0.000E+00,0.000E+00,0.000E+00,0.000E+00,0.000E+00,0.000E+00,0.000E+00,0.000E+00,0.000E+00
1979-02-26 00:02:35.900 ,1979-02-26 00:02:41.840 ,8,-1,0.000E+00,0.000E+00,0.000E+00,0.000E+00,0.000E+00,0.000E+00,0.000E+00,0.000E+00,0.000E+00,0.000E+00
1979-02-26 00:02:42.270 ,1979-02-26 00:03:05.840 ,7,-1,3.55,1.34,0.000E+00,0.000E+00,0.000E+00,0.000E+00,0.000E+00,0.000E+00,0.000E+00,0.000E+00
1979-02-26 00:03:06.270 ,1979-02-26 00:03:29.840 ,6,-1,1.01,0.717,0.000E+00,0.000E+00,1.171E-02,1.171E-02,0.000E+00,0.000E+00,0.000E+00,0.000E+00
1979-02-26 00:03:30.270 ,1979-02-26 00:03:53.840 ,5,-1,3.55,1.34,0.000E+00,0.000E+00,1.171E-02,1.171E-02,0.000E+00,0.000E+00,0.000E+00,0.000E+00
1979-02-26 00:03:54.270 ,1979-02-26 00:04:17.840 ,4,-1,1.52,0.879,0.000E+00,0.000E+00,1.171E-02,1.171E-02,0.000E+00,0.000E+00,0.000E+00,0.000E+00
1979-02-26 00:04:18.270 ,1979-02-26 00:04:41.840 ,3,-1,2.03,1.01,0.000E+00,0.000E+00,1.171E-02,1.171E-02,0.000E+00,0.000E+00,0.000E+00,0.000E+00
1979-02-26 00:04:42.270 ,1979-02-26 00:05:05.840 ,2,-1,3.04,1.24,0.000E+00,0.000E+00,0.000E+00,0.000E+00,0.000E+00,0.000E+00,0.000E+00,0.000E+00
1979-02-26 00:05:05.900 ,1979-02-26 00:05:30.270 ,1,-1,4.13,2.38,0.000E+00,0.000E+00,1.171E-02,1.171E-02,0.000E+00,0.000E+00,0.000E+00,0.000E+00
1979-02-26 00:05:30.270 ,1979-02-26 00:05:53.840 ,1,1,6.59,1.83,0.000E+00,0.000E+00,0.000E+00,0.000E+00,0.000E+00,0.000E+00,0.000E+00,0.000E+00
1979-02-26 00:05:54.270 ,1979-02-26 00:06:17.840 ,2,1,6.67,1.78,1.710E-02,1.710E-02,1.648E-02,1.165E-02,0.000E+00,0.000E+00,0.000E+00,0.000E+00
1979-02-26 00:06:18.270 ,1979-02-26 00:06:41.840 ,3,1,1.75,0.873,2.169E-02,2.169E-02,9.656E-03,9.656E-03,0.000E+00,0.000E+00,0.000E+00,0.000E+00
1979-02-26 00:06:42.270 ,1979-02-26 00:07:05.840 ,4,1,2.03,1.01,0.000E+00,0.000E+00,1.171E-02,1.171E-02,0.000E+00,0.000E+00,0.000E+00,0.000E+00
1979-02-26 00:07:06.270 ,1979-02-26 00:07:29.840 ,5,1,2.54,1.13,0.000E+00,0.000E+00,0.000E+00,0.000E+00,0.000E+00,0.000E+00,0.000E+00,0.000E+00
1979-02-26 00:07:30.270 ,1979-02-26 00:07:53.840 ,6,1,1.52,0.879,0.000E+00,0.000E+00,2.343E-02,1.656E-02,0.000E+00,0.000E+00,0.000E+00,0.000E+00
1979-02-26 00:07:54.270 ,1979-02-26 00:08:17.840 ,7,1,3.55,1.34,0.000E+00,0.000E+00,2.343E-02,1.656E-02,0.000E+00,0.000E+00,0.000E+00,0.000E+00
1979-02-26 00:08:18.270 ,1979-02-26 00:08:59.840 ,8,1,0.000E+00,0.000E+00,0.000E+00,0.000E+00,0.000E+00,0.000E+00,0.000E+00,0.000E+00,0.000E+00,0.000E+00
1979-02-26 00:08:59.900 ,1979-02-26 00:09:05.840 ,8,-1,0.000E+00,0.000E+00,0.000E+00,0.000E+00,0.000E+00,0.000E+00,0.000E+00,0.000E+00,0.000E+00,0.000E+00
1979-02-26 00:09:06.270 ,1979-02-26 00:09:29.840 ,7,-1,1.52,0.879,0.000E+00,0.000E+00,0.000E+00,0.000E+00,0.000E+00,0.000E+00,0.000E+00,0.000E+00
1979-02-26 00:09:30.270 ,1979-02-26 00:09:53.840 ,6,-1,3.18,1.20,3.268E-02,3.268E-02,0.000E+00,0.000E+00,0.000E+00,0.000E+00,0.000E+00,0.000E+00
1979-02-26 00:09:54.270 ,1979-02-26 00:10:17.840 ,5,-1,1.52,0.879,0.000E+00,0.000E+00,0.000E+00,0.000E+00,0.000E+00,0.000E+00,0.000E+00,0.000E+00
1979-02-26 00:10:18.270 ,1979-02-26 00:10:41.840 ,4,-1,3.04,1.24,0.000E+00,0.000E+00,0.000E+00,0.000E+00,0.000E+00,0.000E+00,0.000E+00,0.000E+00
1979-02-26 00:10:42.270 ,1979-02-26 00:11:05.840 ,3,-1,3.18,1.20,1.710E-02,1.710E-02,1.648E-02,1.165E-02,0.000E+00,0.000E+00,0.000E+00,0.000E+00
1979-02-26 00:11:06.270 ,1979-02-26 00:11:29.840 ,2,-1,2.54,1.13,0.000E+00,0.000E+00,2.343E-02,1.656E-02,0.000E+00,0.000E+00,0.000E+00,0.000E+00
1979-02-26 00:11:29.900 ,1979-02-26 00:11:54.270 ,1,-1,6.88,3.08,0.000E+00,0.000E+00,1.171E-02,1.171E-02,0.000E+00,0.000E+00,0.000E+00,0.000E+00
1979-02-26 00:11:54.270 ,1979-02-26 00:12:17.840 ,1,1,3.04,1.24,0.000E+00,0.000E+00,0.000E+00,0.000E+00,0.000E+00,0.000E+00,0.000E+00,0.000E+00
1979-02-26 00:12:18.270 ,1979-02-26 00:12:41.840 ,2,1,3.40,1.39,0.000E+00,0.000E+00,1.171E-02,1.171E-02,0.000E+00,0.000E+00,0.000E+00,0.000E+00
1979-02-26 00:12:42.270 ,1979-02-26 00:13:05.840 ,3,1,0.394,0.394,2.169E-02,2.169E-02,9.656E-03,9.656E-03,0.000E+00,0.000E+00,0.000E+00,0.000E+00
1979-02-26 00:13:06.270 ,1979-02-26 00:13:29.840 ,4,1,0.507,0.507,0.000E+00,0.000E+00,1.171E-02,1.171E-02,0.000E+00,0.000E+00,0.000E+00,0.000E+00
1979-02-26 00:13:30.270 ,1979-02-26 00:13:53.840 ,5,1,3.04,1.24,0.000E+00,0.000E+00,0.000E+00,0.000E+00,0.000E+00,0.000E+00,0.000E+00,0.000E+00
1979-02-26 00:13:54.270 ,1979-02-26 00:14:17.840 ,6,1,2.03,1.01,0.000E+00,0.000E+00,1.171E-02,1.171E-02,0.000E+00,0.000E+00,0.000E+00,0.000E+00
1979-02-26 00:14:18.270 ,1979-02-26 00:14:41.840 ,7,1,5.58,1.68,0.000E+00,0.000E+00,3.514E-02,2.029E-02,0.000E+00,0.000E+00,0.000E+00,0.000E+00
1979-02-26 00:14:42.270 ,1979-02-26 00:15:23.840 ,8,1,0.000E+00,0.000E+00,1.882E-02,1.882E-02,0.000E+00,0.000E+00,0.000E+00,0.000E+00,0.000E+00,0.000E+00
1979-02-26 00:15:23.900 ,1979-02-26 00:15:29.840 ,8,-1,0.000E+00,0.000E+00,0.000E+00,0.000E+00,2.343E-02,2.343E-02,0.000E+00,0.000E+00,0.000E+00,0.000E+00
1979-02-26 00:15:30.270 ,1979-02-26 00:15:53.840 ,7,-1,3.55,1.34,0.000E+00,0.000E+00,1.171E-02,1.171E-02,0.000E+00,0.000E+00,0.000E+00,0.000E+00
1979-02-26 00:15:54.270 ,1979-02-26 00:16:17.840 ,6,-1,3.04,1.24,0.000E+00,0.000E+00,0.000E+00,0.000E+00,0.000E+00,0.000E+00,0.000E+00,0.000E+00
1979-02-26 00:16:18.270 ,1979-02-26 00:16:41.840 ,5,-1,3.18,1.20,2.169E-02,2.169E-02,9.656E-03,9.656E-03,0.000E+00,0.000E+00,0.000E+00,0.000E+00
1979-02-26 00:16:42.270 ,1979-02-26 00:17:05.840 ,4,-1,2.22,0.992,1.710E-02,1.710E-02,1.648E-02,1.165E-02,0.000E+00,0.000E+00,0.000E+00,0.000E+00
1979-02-26 00:17:06.270 ,1979-02-26 00:17:29.840 ,3,-1,1.52,0.879,0.000E+00,0.000E+00,2.343E-02,1.656E-02,0.000E+00,0.000E+00,0.000E+00,0.000E+00
1979-02-26 00:17:30.270 ,1979-02-26 00:17:53.840 ,2,-1,3.55,1.34,0.000E+00,0.000E+00,0.000E+00,0.000E+00,0.000E+00,0.000E+00,0.000E+00,0.000E+00
1979-02-26 00:17:53.900 ,1979-02-26 00:18:18.270 ,1,-1,2.75,1.95,0.000E+00,0.000E+00,3.514E-02,2.029E-02,0.000E+00,0.000E+00,0.000E+00,0.000E+00
1979-02-26 00:18:18.270 ,1979-02-26 00:18:41.840 ,1,1,4.06,1.43,0.000E+00,0.000E+00,1.171E-02,1.171E-02,0.000E+00,0.000E+00,0.000E+00,0.000E+00
1979-02-26 00:18:42.270 ,1979-02-26 00:19:05.840 ,2,1,3.40,1.39,0.000E+00,0.000E+00,1.171E-02,1.171E-02,0.000E+00,0.000E+00,0.000E+00,0.000E+00
1979-02-26 00:19:06.270 ,1979-02-26 00:19:29.840 ,3,1,2.54,1.13,0.000E+00,0.000E+00,0.000E+00,0.000E+00,0.000E+00,0.000E+00,0.000E+00,0.000E+00
1979-02-26 00:19:30.270 ,1979-02-26 00:19:53.840 ,4,1,1.01,0.717,0.000E+00,0.000E+00,0.000E+00,0.000E+00,0.000E+00,0.000E+00,0.000E+00,0.000E+00
1979-02-26 00:19:54.270 ,1979-02-26 00:20:17.840 ,5,1,0.507,0.507,0.000E+00,0.000E+00,0.000E+00,0.000E+00,0.000E+00,0.000E+00,0.000E+00,0.000E+00
1979-02-26 00:20:18.270 ,1979-02-26 00:20:41.840 ,6,1,1.81,1.04,0.000E+00,0.000E+00,0.000E+00,0.000E+00,0.000E+00,0.000E+00,0.000E+00,0.000E+00
1979-02-26 00:20:42.270 ,1979-02-26 00:21:05.840 ,7,1,4.57,1.52,0.000E+00,0.000E+00,0.000E+00,0.000E+00,0.000E+00,0.000E+00,0.000E+00,0.000E+00
1979-02-26 00:21:06.270 ,1979-02-26 00:21:47.840 ,8,1,0.000E+00,0.000E+00,0.000E+00,0.000E+00,1.562E-02,1.104E-02,0.000E+00,0.000E+00,0.000E+00,0.000E+00
1979-02-26 00:21:47.900 ,1979-02-26 00:21:53.840 ,8,-1,0.000E+00,0.000E+00,0.000E+00,0.000E+00,2.343E-02,2.343E-02,0.000E+00,0.000E+00,0.000E+00,0.000E+00
1979-02-26 00:21:54.270 ,1979-02-26 00:22:17.840 ,7,-1,2.03,1.01,0.000E+00,0.000E+00,1.171E-02,1.171E-02,0.000E+00,0.000E+00,0.000E+00,0.000E+00
1979-02-26 00:22:18.270 ,1979-02-26 00:22:41.840 ,6,-1,1.01,0.717,0.000E+00,0.000E+00,1.171E-02,1.171E-02,0.000E+00,0.000E+00,0.000E+00,0.000E+00
1979-02-26 00:22:42.270 ,1979-02-26 00:23:05.840 ,5,-1,5.07,1.60,0.000E+00,0.000E+00,0.000E+00,0.000E+00,0.000E+00,0.000E+00,0.000E+00,0.000E+00
1979-02-26 00:23:06.270 ,1979-02-26 00:23:29.840 ,4,-1,1.01,0.717,0.000E+00,0.000E+00,2.343E-02,1.656E-02,0.000E+00,0.000E+00,0.000E+00,0.000E+00
1979-02-26 00:23:30.270 ,1979-02-26 00:23:53.840 ,3,-1,0.507,0.507,0.000E+00,0.000E+00,2.343E-02,1.656E-02,0.000E+00,0.000E+00,0.000E+00,0.000E+00
1979-02-26 00:23:54.270 ,1979-02-26 00:24:17.840 ,2,-1,3.55,1.34,0.000E+00,0.000E+00,0.000E+00,0.000E+00,0.000E+00,0.000E+00,0.000E+00,0.000E+00
1979-02-26 00:24:17.900 ,1979-02-26 00:24:42.270 ,1,-1,3.21,2.27,0.000E+00,0.000E+00,1.171E-02,1.171E-02,0.000E+00,0.000E+00,0.000E+00,0.000E+00
1979-02-26 00:24:42.270 ,1979-02-26 00:25:05.840 ,1,1,3.55,1.34,0.000E+00,0.000E+00,0.000E+00,0.000E+00,0.000E+00,0.000E+00,0.000E+00,0.000E+00
1979-02-26 00:25:06.270 ,1979-02-26 00:25:29.840 ,2,1,1.52,0.879,0.000E+00,0.000E+00,2.343E-02,1.656E-02,0.000E+00,0.000E+00,0.000E+00,0.000E+00
1979-02-26 00:25:30.270 ,1979-02-26 00:25:53.840 ,3,1,2.03,1.01,0.000E+00,0.000E+00,1.171E-02,1.171E-02,0.000E+00,0.000E+00,0.000E+00,0.000E+00
1979-02-26 00:25:54.270 ,1979-02-26 00:26:17.840 ,4,1,1.01,0.717,0.000E+00,0.000E+00,1.171E-02,1.171E-02,0.000E+00,0.000E+00,0.000E+00,0.000E+00
1979-02-26 00:26:18.270 ,1979-02-26 00:26:41.840 ,5,1,3.04,1.24,0.000E+00,0.000E+00,0.000E+00,0.000E+00,0.000E+00,0.000E+00,0.000E+00,0.000E+00
1979-02-26 00:26:42.270 ,1979-02-26 00:27:05.840 ,6,1,0.507,0.507,0.000E+00,0.000E+00,0.000E+00,0.000E+00,0.000E+00,0.000E+00,0.000E+00,0.000E+00
1979-02-26 00:27:06.270 ,1979-02-26 00:27:29.840 ,7,1,3.04,1.24,0.000E+00,0.000E+00,1.171E-02,1.171E-02,0.000E+00,0.000E+00,0.000E+00,0.000E+00
1979-02-26 00:27:30.270 ,1979-02-26 00:28:11.840 ,8,1,0.000E+00,0.000E+00,0.000E+00,0.000E+00,0.000E+00,0.000E+00,0.000E+00,0.000E+00,0.000E+00,0.000E+00
1979-02-26 00:28:11.900 ,1979-02-26 00:28:17.840 ,8,-1,0.000E+00,0.000E+00,0.000E+00,0.000E+00,0.000E+00,0.000E+00,0.000E+00,0.000E+00,0.000E+00,0.000E+00
1979-02-26 00:28:18.270 ,1979-02-26 00:28:41.840 ,7,-1,2.22,0.992,1.710E-02,1.710E-02,1.648E-02,1.165E-02,0.000E+00,0.000E+00,0.000E+00,0.000E+00
1979-02-26 00:28:42.270 ,1979-02-26 00:29:05.840 ,6,-1,3.21,1.31,0.000E+00,0.000E+00,2.343E-02,1.656E-02,0.000E+00,0.000E+00,0.000E+00,0.000E+00
1979-02-26 00:29:06.270 ,1979-02-26 00:29:29.840 ,5,-1,6.09,1.76,0.000E+00,0.000E+00,3.514E-02,2.029E-02,0.000E+00,0.000E+00,0.000E+00,0.000E+00
1979-02-26 00:29:30.270 ,1979-02-26 00:29:53.840 ,4,-1,1.28,0.740,1.464E-02,1.464E-02,2.207E-02,1.274E-02,0.000E+00,0.000E+00,0.000E+00,0.000E+00
1979-02-26 00:29:54.270 ,1979-02-26 00:30:17.840 ,3,-1,3.18,1.20,1.710E-02,1.710E-02,1.648E-02,1.165E-02,0.000E+00,0.000E+00,0.000E+00,0.000E+00
1979-02-26 00:30:18.270 ,1979-02-26 00:30:41.840 ,2,-1,2.03,1.01,0.000E+00,0.000E+00,0.000E+00,0.000E+00,0.000E+00,0.000E+00,0.000E+00,0.000E+00
1979-02-26 00:30:41.900 ,1979-02-26 00:31:06.270 ,1,-1,4.13,2.38,0.000E+00,0.000E+00,2.343E-02,1.656E-02,0.000E+00,0.000E+00,0.000E+00,0.000E+00
1979-02-26 00:31:06.270 ,1979-02-26 00:31:29.840 ,1,1,5.58,1.68,0.000E+00,0.000E+00,1.171E-02,1.171E-02,0.000E+00,0.000E+00,0.000E+00,0.000E+00
1979-02-26 00:31:30.270 ,1979-02-26 00:31:53.840 ,2,1,1.52,0.879,0.000E+00,0.000E+00,2.343E-02,1.656E-02,0.000E+00,0.000E+00,0.000E+00,0.000E+00
1979-02-26 00:31:54.270 ,1979-02-26 00:32:17.840 ,3,1,1.01,0.717,0.000E+00,0.000E+00,0.000E+00,0.000E+00,0.000E+00,0.000E+00,0.000E+00,0.000E+00
1979-02-26 00:32:18.270 ,1979-02-26 00:32:41.840 ,4,1,4.28,1.51,0.000E+00,0.000E+00,1.171E-02,1.171E-02,0.000E+00,0.000E+00,0.000E+00,0.000E+00
1979-02-26 00:32:42.270 ,1979-02-26 00:33:05.840 ,5,1,1.01,0.717,0.000E+00,0.000E+00,1.171E-02,1.171E-02,0.000E+00,0.000E+00,0.000E+00,0.000E+00
1979-02-26 00:33:06.270 ,1979-02-26 00:33:29.840 ,6,1,1.52,0.879,0.000E+00,0.000E+00,0.000E+00,0.000E+00,0.000E+00,0.000E+00,0.000E+00,0.000E+00
1979-02-26 00:33:30.270 ,1979-02-26 00:33:53.840 ,7,1,2.54,1.13,0.000E+00,0.000E+00,0.000E+00,0.000E+00,0.000E+00,0.000E+00,0.000E+00,0.000E+00
1979-02-26 00:33:54.270 ,1979-02-26 00:34:35.840 ,8,1,0.000E+00,0.000E+00,0.000E+00,0.000E+00,7.810E-03,7.810E-03,0.000E+00,0.000E+00,0.000E+00,0.000E+00
1979-02-26 00:34:35.900 ,1979-02-26 00:34:41.840 ,8,-1,0.000E+00,0.000E+00,0.000E+00,0.000E+00,0.000E+00,0.000E+00,0.000E+00,0.000E+00,0.000E+00,0.000E+00
1979-02-26 00:34:42.270 ,1979-02-26 00:35:05.840 ,7,-1,3.04,1.24,0.000E+00,0.000E+00,1.171E-02,1.171E-02,0.000E+00,0.000E+00,0.000E+00,0.000E+00
1979-02-26 00:35:06.270 ,1979-02-26 00:35:29.840 ,6,-1,2.03,1.01,0.000E+00,0.000E+00,0.000E+00,0.000E+00,0.000E+00,0.000E+00,0.000E+00,0.000E+00
1979-02-26 00:35:30.270 ,1979-02-26 00:35:53.840 ,5,-1,1.01,0.717,0.000E+00,0.000E+00,2.343E-02,1.656E-02,0.000E+00,0.000E+00,0.000E+00,0.000E+00
1979-02-26 00:35:54.270 ,1979-02-26 00:36:17.840 ,4,-1,2.54,1.13,0.000E+00,0.000E+00,1.171E-02,1.171E-02,0.000E+00,0.000E+00,0.000E+00,0.000E+00
1979-02-26 00:36:18.270 ,1979-02-26 00:36:41.840 ,3,-1,1.28,0.740,3.268E-02,3.268E-02,0.000E+00,0.000E+00,0.000E+00,0.000E+00,0.000E+00,0.000E+00
1979-02-26 00:36:42.270 ,1979-02-26 00:37:05.840 ,2,-1,4.57,1.52,0.000E+00,0.000E+00,3.514E-02,2.029E-02,0.000E+00,0.000E+00,0.000E+00,0.000E+00
1979-02-26 00:37:05.900 ,1979-02-26 00:37:30.270 ,1,-1,6.02,2.69,8.871E-02,8.871E-02,0.000E+00,0.000E+00,0.000E+00,0.000E+00,0.000E+00,0.000E+00
1979-02-26 00:37:30.270 ,1979-02-26 00:37:53.840 ,1,1,4.06,1.43,0.000E+00,0.000E+00,2.343E-02,1.656E-02,0.000E+00,0.000E+00,0.000E+00,0.000E+00
1979-02-26 00:37:54.270 ,1979-02-26 00:38:17.840 ,2,1,4.06,1.43,0.000E+00,0.000E+00,0.000E+00,0.000E+00,0.000E+00,0.000E+00,0.000E+00,0.000E+00
1979-02-26 00:38:18.270 ,1979-02-26 00:38:41.840 ,3,1,2.22,0.992,2.169E-02,2.169E-02,9.656E-03,9.656E-03,0.000E+00,0.000E+00,0.000E+00,0.000E+00
1979-02-26 00:38:42.270 ,1979-02-26 00:39:05.840 ,4,1,2.03,1.01,0.000E+00,0.000E+00,1.171E-02,1.171E-02,0.000E+00,0.000E+00,0.000E+00,0.000E+00
1979-02-26 00:39:06.270 ,1979-02-26 00:39:29.840 ,5,1,3.55,1.34,0.000E+00,0.000E+00,1.171E-02,1.171E-02,0.000E+00,0.000E+00,0.000E+00,0.000E+00
1979-02-26 00:39:30.270 ,1979-02-26 00:39:53.840 ,6,1,2.54,1.13,0.000E+00,0.000E+00,0.000E+00,0.000E+00,0.000E+00,0.000E+00,0.000E+00,0.000E+00
1979-02-26 00:39:54.270 ,1979-02-26 00:40:17.840 ,7,1,4.06,1.43,0.000E+00,0.000E+00,0.000E+00,0.000E+00,0.000E+00,0.000E+00,0.000E+00,0.000E+00
1979-02-26 00:40:18.270 ,1979-02-26 00:40:59.840 ,8,1,0.292,0.292,0.000E+00,0.000E+00,2.343E-02,1.353E-02,0.000E+00,0.000E+00,0.000E+00,0.000E+00
1979-02-26 00:40:59.900 ,1979-02-26 00:41:05.840 ,8,-1,0.000E+00,0.000E+00,0.000E+00,0.000E+00,0.000E+00,0.000E+00,0.000E+00,0.000E+00,0.000E+00,0.000E+00
1979-02-26 00:41:06.270 ,1979-02-26 00:41:29.840 ,7,-1,5.58,1.68,0.000E+00,0.000E+00,2.343E-02,1.656E-02,0.000E+00,0.000E+00,0.000E+00,0.000E+00
1979-02-26 00:41:30.270 ,1979-02-26 00:41:53.840 ,6,-1,3.04,1.24,0.000E+00,0.000E+00,3.514E-02,2.029E-02,0.000E+00,0.000E+00,0.000E+00,0.000E+00
1979-02-26 00:41:54.270 ,1979-02-26 00:42:17.840 ,5,-1,1.52,0.879,0.000E+00,0.000E+00,0.000E+00,0.000E+00,0.000E+00,0.000E+00,0.000E+00,0.000E+00
1979-02-26 00:42:18.270 ,1979-02-26 00:42:41.840 ,4,-1,2.03,1.01,0.000E+00,0.000E+00,2.343E-02,1.656E-02,0.000E+00,0.000E+00,0.000E+00,0.000E+00
1979-02-26 00:42:42.270 ,1979-02-26 00:43:05.840 ,3,-1,1.52,0.879,0.000E+00,0.000E+00,2.343E-02,1.656E-02,0.000E+00,0.000E+00,0.000E+00,0.000E+00
1979-02-26 00:43:06.270 ,1979-02-26 00:43:29.840 ,2,-1,0.507,0.507,0.000E+00,0.000E+00,2.343E-02,1.656E-02,0.000E+00,0.000E+00,0.000E+00,0.000E+00
1979-02-26 00:43:29.900 ,1979-02-26 00:43:54.270 ,1,-1,5.51,2.75,0.000E+00,0.000E+00,3.514E-02,2.029E-02,0.000E+00,0.000E+00,0.000E+00,0.000E+00
1979-02-26 00:43:54.270 ,1979-02-26 00:44:17.840 ,1,1,2.03,1.01,0.000E+00,0.000E+00,1.171E-02,1.171E-02,0.000E+00,0.000E+00,0.000E+00,0.000E+00
1979-02-26 00:44:18.270 ,1979-02-26 00:44:41.840 ,2,1,0.507,0.507,0.000E+00,0.000E+00,0.000E+00,0.000E+00,0.000E+00,0.000E+00,0.000E+00,0.000E+00
1979-02-26 00:44:42.270 ,1979-02-26 00:45:05.840 ,3,1,1.28,0.740,1.710E-02,1.710E-02,1.648E-02,1.165E-02,0.000E+00,0.000E+00,0.000E+00,0.000E+00
1979-02-26 00:45:06.650 ,1979-02-26 00:45:29.840 ,4,1,1.52,0.879,0.000E+00,0.000E+00,0.000E+00,0.000E+00,0.000E+00,0.000E+00,0.000E+00,0.000E+00
1979-02-26 00:45:30.270 ,1979-02-26 00:45:53.840 ,5,1,1.52,0.879,0.000E+00,0.000E+00,0.000E+00,0.000E+00,0.000E+00,0.000E+00,0.000E+00,0.000E+00
1979-02-26 00:45:54.270 ,1979-02-26 00:46:17.840 ,6,1,36.3,4.54,0.000E+00,0.000E+00,0.000E+00,0.000E+00,0.000E+00,0.000E+00,0.000E+00,0.000E+00
1979-02-26 00:46:18.270 ,1979-02-26 00:46:41.840 ,7,1,38.6,4.67,0.000E+00,0.000E+00,3.514E-02,2.029E-02,0.000E+00,0.000E+00,0.000E+00,0.000E+00
1979-02-26 00:46:42.270 ,1979-02-26 00:47:23.840 ,8,1,36.0,3.40,0.000E+00,0.000E+00,7.810E-03,7.810E-03,0.000E+00,0.000E+00,0.000E+00,0.000E+00
1979-02-26 00:47:23.900 ,1979-02-26 00:47:29.840 ,8,-1,38.6,9.64,0.000E+00,0.000E+00,2.343E-02,2.343E-02,0.000E+00,0.000E+00,0.000E+00,0.000E+00
1979-02-26 00:47:30.270 ,1979-02-26 00:47:53.840 ,7,-1,37.4,4.60,0.000E+00,0.000E+00,1.171E-02,1.171E-02,0.000E+00,0.000E+00,0.000E+00,0.000E+00
1979-02-26 00:47:54.270 ,1979-02-26 00:48:17.840 ,6,-1,36.9,4.57,0.000E+00,0.000E+00,1.171E-02,1.171E-02,0.000E+00,0.000E+00,0.000E+00,0.000E+00
1979-02-26 00:48:18.270 ,1979-02-26 00:48:41.840 ,5,-1,36.3,4.54,0.000E+00,0.000E+00,0.000E+00,0.000E+00,0.000E+00,0.000E+00,0.000E+00,0.000E+00
1979-02-26 00:48:42.270 ,1979-02-26 00:49:05.840 ,4,-1,0.000E+00,0.000E+00,0.000E+00,0.000E+00,2.343E-02,1.656E-02,0.000E+00,0.000E+00,0.000E+00,0.000E+00
1979-02-26 00:49:06.270 ,1979-02-26 00:49:29.840 ,3,-1,1.01,0.717,0.000E+00,0.000E+00,0.000E+00,0.000E+00,0.000E+00,0.000E+00,0.000E+00,0.000E+00
1979-02-26 00:49:30.270 ,1979-02-26 00:49:53.840 ,2,-1,0.507,0.507,0.000E+00,0.000E+00,1.171E-02,1.171E-02,0.000E+00,0.000E+00,0.000E+00,0.000E+00
1979-02-26 00:49:53.900 ,1979-02-26 00:50:18.270 ,1,-1,0.000E+00,0.000E+00,0.000E+00,0.000E+00,1.171E-02,1.171E-02,0.000E+00,0.000E+00,0.000E+00,0.000E+00
1979-02-26 00:50:18.270 ,1979-02-26 00:50:41.840 ,1,1,37.4,4.60,0.000E+00,0.000E+00,0.000E+00,0.000E+00,0.000E+00,0.000E+00,0.000E+00,0.000E+00
1979-02-26 00:50:42.270 ,1979-02-26 00:51:05.840 ,2,1,0.507,0.507,0.000E+00,0.000E+00,0.000E+00,0.000E+00,0.000E+00,0.000E+00,0.000E+00,0.000E+00
1979-02-26 00:51:06.270 ,1979-02-26 00:51:29.840 ,3,1,0.000E+00,0.000E+00,0.000E+00,0.000E+00,0.000E+00,0.000E+00,0.000E+00,0.000E+00,0.000E+00,0.000E+00
1979-02-26 00:51:30.270 ,1979-02-26 00:51:53.840 ,4,1,0.000E+00,0.000E+00,6.536E-02,4.621E-02,0.000E+00,0.000E+00,0.000E+00,0.000E+00,0.000E+00,0.000E+00
1979-02-26 00:51:54.270 ,1979-02-26 00:52:17.840 ,5,1,0.507,0.507,0.000E+00,0.000E+00,2.343E-02,1.656E-02,0.000E+00,0.000E+00,0.000E+00,0.000E+00
1979-02-26 00:52:18.270 ,1979-02-26 00:52:41.840 ,6,1,1.01,0.717,0.000E+00,0.000E+00,1.171E-02,1.171E-02,0.000E+00,0.000E+00,0.000E+00,0.000E+00
1979-02-26 00:52:42.270 ,1979-02-26 00:53:05.840 ,7,1,37.4,4.60,0.000E+00,0.000E+00,1.171E-02,1.171E-02,0.000E+00,0.000E+00,0.000E+00,0.000E+00
1979-02-26 00:53:06.270 ,1979-02-26 00:53:47.840 ,8,1,36.0,3.40,0.000E+00,0.000E+00,1.562E-02,1.104E-02,0.000E+00,0.000E+00,0.000E+00,0.000E+00
1979-02-26 00:53:47.900 ,1979-02-26 00:53:53.840 ,8,-1,38.6,9.64,0.000E+00,0.000E+00,2.343E-02,2.343E-02,0.000E+00,0.000E+00,0.000E+00,0.000E+00
1979-02-26 00:53:54.270 ,1979-02-26 00:54:17.840 ,7,-1,38.0,4.64,0.000E+00,0.000E+00,0.000E+00,0.000E+00,0.000E+00,0.000E+00,0.000E+00,0.000E+00
1979-02-26 00:54:18.270 ,1979-02-26 00:54:41.840 ,6,-1,39.1,4.81,3.268E-02,3.268E-02,0.000E+00,0.000E+00,0.000E+00,0.000E+00,0.000E+00,0.000E+00
1979-02-26 00:54:42.270 ,1979-02-26 00:55:05.840 ,5,-1,36.3,4.54,0.000E+00,0.000E+00,4.686E-02,2.343E-02,0.000E+00,0.000E+00,0.000E+00,0.000E+00
1979-02-26 00:55:06.270 ,1979-02-26 00:55:29.840 ,4,-1,36.3,4.54,0.000E+00,0.000E+00,0.000E+00,0.000E+00,0.000E+00,0.000E+00,0.000E+00,0.000E+00
1979-02-26 00:55:30.270 ,1979-02-26 00:55:53.840 ,3,-1,39.1,4.81,3.268E-02,3.268E-02,0.000E+00,0.000E+00,0.000E+00,0.000E+00,0.000E+00,0.000E+00
1979-02-26 00:55:54.270 ,1979-02-26 00:56:17.840 ,2,-1,38.5,4.77,2.169E-02,2.169E-02,9.656E-03,9.656E-03,0.000E+00,0.000E+00,0.000E+00,0.000E+00
1979-02-26 00:56:17.900 ,1979-02-26 00:56:42.270 ,1,-1,0.000E+00,0.000E+00,8.871E-02,8.871E-02,0.000E+00,0.000E+00,0.000E+00,0.000E+00,0.000E+00,0.000E+00
1979-02-26 00:56:42.270 ,1979-02-26 00:57:05.840 ,1,1,39.7,4.74,0.000E+00,0.000E+00,0.000E+00,0.000E+00,0.000E+00,0.000E+00,0.000E+00,0.000E+00
1979-02-26 00:57:06.270 ,1979-02-26 00:57:29.840 ,2,1,39.1,4.71,0.000E+00,0.000E+00,0.000E+00,0.000E+00,0.000E+00,0.000E+00,0.000E+00,0.000E+00
1979-02-26 00:57:30.270 ,1979-02-26 00:57:53.840 ,3,1,36.9,4.57,0.000E+00,0.000E+00,0.000E+00,0.000E+00,0.000E+00,0.000E+00,0.000E+00,0.000E+00
1979-02-26 00:57:54.270 ,1979-02-26 00:58:17.840 ,4,1,1.01,0.717,0.000E+00,0.000E+00,1.171E-02,1.171E-02,0.000E+00,0.000E+00,0.000E+00,0.000E+00
1979-02-26 00:58:18.270 ,1979-02-26 00:58:41.840 ,5,1,2.03,1.01,0.000E+00,0.000E+00,0.000E+00,0.000E+00,0.000E+00,0.000E+00,0.000E+00,0.000E+00
1979-02-26 00:58:42.270 ,1979-02-26 00:59:05.840 ,6,1,0.507,0.507,0.000E+00,0.000E+00,0.000E+00,0.000E+00,0.000E+00,0.000E+00,0.000E+00,0.000E+00
1979-02-26 00:59:06.270 ,1979-02-26 00:59:29.840 ,7,1,0.000E+00,0.000E+00,0.000E+00,0.000E+00,2.343E-02,1.656E-02,0.000E+00,0.000E+00,0.000E+00,0.000E+00
1979-02-26 00:59:30.270 ,1979-02-26 00:00:11.840 ,8,1,0.000E+00,0.000E+00,0.000E+00,0.000E+00,7.810E-03,7.810E-03,0.000E+00,0.000E+00,0.000E+00,0.000E+00
1979-02-26 01:00:11.900 ,1979-02-26 01:00:17.840 ,8,-1,0.000E+00,0.000E+00,0.000E+00,0.000E+00,0.000E+00,0.000E+00,0.000E+00,0.000E+00,0.000E+00,0.000E+00
1979-02-26 01:00:18.270 ,1979-02-26 01:00:41.840 ,7,-1,39.1,4.71,0.000E+00,0.000E+00,2.343E-02,1.656E-02,0.000E+00,0.000E+00,0.000E+00,0.000E+00
1979-02-26 01:00:42.280 ,1979-02-26 01:01:05.840 ,6,-1,37.4,4.60,0.000E+00,0.000E+00,3.514E-02,2.029E-02,0.000E+00,0.000E+00,0.000E+00,0.000E+00
1979-02-26 01:01:06.280 ,1979-02-26 01:01:29.840 ,5,-1,38.0,4.64,0.000E+00,0.000E+00,1.171E-02,1.171E-02,0.000E+00,0.000E+00,0.000E+00,0.000E+00
1979-02-26 01:01:30.280 ,1979-02-26 01:01:53.840 ,4,-1,36.3,4.54,0.000E+00,0.000E+00,1.171E-02,1.171E-02,0.000E+00,0.000E+00,0.000E+00,0.000E+00
1979-02-26 01:01:54.280 ,1979-02-26 01:02:17.840 ,3,-1,38.0,4.64,0.000E+00,0.000E+00,2.343E-02,1.656E-02,0.000E+00,0.000E+00,0.000E+00,0.000E+00
1979-02-26 01:02:18.270 ,1979-02-26 01:02:41.840 ,2,-1,37.4,4.60,0.000E+00,0.000E+00,0.000E+00,0.000E+00,0.000E+00,0.000E+00,0.000E+00,0.000E+00
1979-02-26 01:02:41.900 ,1979-02-26 01:03:06.270 ,1,-1,0.000E+00,0.000E+00,0.000E+00,0.000E+00,1.171E-02,1.171E-02,0.000E+00,0.000E+00,0.000E+00,0.000E+00
1979-02-26 01:03:06.270 ,1979-02-26 01:03:29.840 ,1,1,36.3,4.54,0.000E+00,0.000E+00,2.343E-02,1.656E-02,0.000E+00,0.000E+00,0.000E+00,0.000E+00
1979-02-26 01:03:30.270 ,1979-02-26 01:03:53.840 ,2,1,37.9,4.74,2.169E-02,2.169E-02,9.656E-03,9.656E-03,0.000E+00,0.000E+00,0.000E+00,0.000E+00
1979-02-26 01:03:54.270 ,1979-02-26 01:04:17.840 ,3,1,0.507,0.507,0.000E+00,0.000E+00,0.000E+00,0.000E+00,0.000E+00,0.000E+00,0.000E+00,0.000E+00
1979-02-26 01:04:18.270 ,1979-02-26 01:04:41.840 ,4,1,1.01,0.717,0.000E+00,0.000E+00,2.343E-02,1.656E-02,0.000E+00,0.000E+00,0.000E+00,0.000E+00